Wind_Speed
24 25 18 16 16 12 11 14 16 17 19 21 24 28 30 32 36 35 33 32 32 39 45 43 48 55 60 61 58 55 53 49 46 46 48 49 47 45 47 49 50 49 46 42 36 33 33 33 32 33 32 27 24 23 22 21 22 24 28 31 34 37 36 35 35 36 36 36 36 37 37 38 38 38 41 43 44 44 44 42 41 38 36 34 32 32
25 23 15 15 15 14 16 17 19 19 19 22 23 27 29 30 33 34 33 33 33 39 46 44 48 57 62 62 59 55 53 49 46 47 49 48 47 48 48 49 50 48 44 40 36 32 30 28 28 31 33 30 25 23 22 20 20 21 25 30 33 35 36 36 35 36 37 37 36 35 35 35 36 37 39 41 43 44 44 43 42 40 38 36 34 33
25 20 15 17 16 17 19 19 21 21 21 22 22 26 30 29 32 35 35 37 37 40 44 44 47 57 64 63 60 55 51 48 44 45 49 46 45 48 48 49 49 48 46 41 35 30 26 24 24 26 28 29 28 25 23 20 20 20 22 26 29 32 34 36 37 38 39 38 36 34 34 33 35 37 37 38 41 43 44 44 42 41 40 38 36 35
27 22 17 15 16 19 21 20 21 22 22 22 22 25 30 30 31 34 39 41 42 45 45 43 45 55 64 65 61 55 51 50 42 41 48 44 42 46 46 46 47 47 45 39 33 28 25 24 22 23 23 24 26 25 23 19 16 16 18 20 23 26 30 34 37 40 41 41 39 36 35 35 36 38 39 39 41 43 44 44 42 42 42 40 37 36
28 22 15 15 18 22 23 22 22 22 23 23 23 24 27 29 27 30 37 38 45 53 47 36 33 46 62 66 62 56 51 48 38 35 43 42 40 41 39 39 38 36 35 34 33 30 28 27 26 26 24 21 21 22 21 18 14 13 14 17 20 22 25 30 34 39 41 43 45 43 40 40 40 41 43 42 42 43 43 43 42 41 43 42 39 37
26 17 15 20 22 23 24 25 23 21 24 25 24 24 24 25 26 29 33 36 42 50 52 39 22 32 59 67 62 56 49 44 36 33 39 39 36 35 33 33 32 29 29 30 30 30 30 32 33 33 30 25 23 25 25 22 17 15 15 15 19 23 25 27 30 36 40 43 48 49 46 45 44 44 45 44 42 42 43 42 41 41 43 44 42 39
23 18 20 24 24 24 26 26 22 19 22 25 24 24 24 24 28 31 34 38 37 43 56 49 24 25 50 66 60 51 47 43 39 36 37 34 31 32 32 33 34 34 35 35 33 33 33 36 39 40 38 33 30 30 32 31 25 20 18 17 17 21 27 29 30 33 39 43 47 52 52 48 47 46 44 42 41 42 42 41 42 42 43 46 45 41
23 23 24 24 25 27 28 26 21 19 21 23 23 24 27 27 30 35 40 43 41 47 55 49 34 23 38 62 56 41 44 46 39 34 30 28 29 33 36 36 37 39 41 43 43 43 43 43 45 47 47 43 39 37 37 37 34 28 23 21 19 20 24 29 32 34 38 43 46 50 53 51 48 47 43 41 40 41 41 42 44 43 43 46 47 44
25 24 23 24 28 29 26 22 20 21 21 22 24 25 28 30 36 43 44 41 39 40 40 43 39 19 27 56 48 35 44 38 26 26 25 30 36 38 37 35 37 41 44 49 53 54 54 53 53 54 53 52 50 47 44 43 41 38 32 28 24 22 22 26 31 36 39 42 45 48 53 54 51 47 44 43 42 42 43 44 44 43 43 46 49 46
22 23 25 27 29 27 22 19 19 21 19 21 23 25 30 37 45 46 36 33 31 25 29 38 33 10 22 53 43 27 32 26 22 32 34 36 38 37 39 40 42 45 48 54 59 61 61 60 61 60 59 59 57 56 54 52 50 46 42 36 31 28 24 25 28 33 39 43 45 48 52 56 56 50 47 48 46 45 46 45 44 43 43 47 50 49
21 25 26 26 27 23 19 18 18 19 17 20 25 31 39 42 41 35 28 26 19 14 25 31 26 15 20 40 34 19 24 34 39 40 36 34 34 37 44 48 51 54 56 60 62 63 64 65 67 67 67 65 61 59 58 59 58 54 49 43 39 35 31 28 29 30 35 41 46 49 50 53 56 53 49 51 51 47 47 47 45 43 43 46 51 52
25 23 23 24 22 17 16 15 16 18 19 25 33 37 36 31 27 25 23 16 6 9 28 35 33 29 24 31 33 27 33 40 35 30 34 38 42 48 53 57 59 61 63 65 66 67 68 69 72 72 71 69 63 60 58 57 60 59 56 51 47 43 39 37 34 32 32 38 44 49 49 49 53 55 52 52 53 51 48 49 47 44 43 46 51 54
27 19 18 16 13 11 13 16 18 23 28 33 34 26 15 12 14 13 10 7 6 15 39 48 37 30 35 36 32 27 26 22 21 30 40 47 54 57 59 62 64 65 67 68 69 69 68 68 69 69 69 68 63 58 53 50 52 56 59 56 52 48 44 44 42 36 33 35 40 46 49 48 50 54 54 53 54 54 50 49 48 46 45 47 51 55
25 14 8 6 10 13 16 20 23 29 36 36 25 17 10 6 6 6 6 8 10 21 51 61 38 25 32 25 16 19 25 29 38 43 42 49 57 59 59 60 63 65 66 67 68 68 67 66 65 65 65 65 61 54 47 42 41 45 52 53 51 51 48 44 44 40 35 35 38 42 47 47 46 51 54 54 54 55 53 49 48 48 46 46 49 55
21 10 6 10 13 13 21 27 25 29 38 32 20 16 12 6 3 5 7 9 11 22 48 52 25 19 28 20 22 37 43 45 47 44 41 48 55 60 64 64 65 66 65 65 66 66 66 66 65 65 64 61 57 49 42 38 37 39 42 44 45 49 50 44 42 42 38 37 37 39 44 45 45 48 53 55 55 54 52 50 49 48 47 46 46 50
21 14 12 18 20 19 26 27 21 29 34 25 20 18 14 16 18 18 19 24 24 19 28 30 21 35 48 44 46 48 40 37 39 43 50 55 59 62 64 63 61 59 58 58 59 59 61 62 62 62 60 57 53 46 41 38 39 40 38 37 35 39 44 42 41 42 40 39 39 37 41 44 44 46 50 54 57 54 50 50 50 48 48 47 45 45
18 21 20 26 33 28 23 25 26 30 24 17 24 26 24 25 24 22 22 27 26 14 15 20 26 47 55 45 41 34 32 40 47 53 55 52 53 54 53 56 56 53 52 52 53 55 57 58 58 57 56 54 50 46 43 40 40 41 39 36 32 32 36 37 40 41 37 38 40 38 39 43 43 45 50 53 55 54 49 49 49 47 48 47 45 43
16 34 38 31 32 29 26 33 34 24 17 21 29 30 26 19 14 16 13 11 11 8 12 17 27 46 42 27 30 35 44 55 53 47 45 46 50 51 55 59 55 51 51 51 54 56 55 53 51 49 50 49 46 41 41 41 40 40 40 39 35 31 31 33 37 39 35 32 34 36 39 43 43 43 49 53 53 52 47 47 49 47 47 47 45 43
15 31 43 33 28 35 40 39 30 25 28 30 23 19 17 11 11 16 13 10 9 7 10 16 27 43 38 30 41 50 52 50 44 43 48 53 56 57 61 61 54 51 51 52 56 56 52 49 46 46 48 47 42 38 38 40 40 39 39 40 38 32 29 32 35 37 36 30 24 28 36 41 44 44 47 51 53 53 50 48 49 48 47 46 45 43
16 19 34 40 37 42 44 36 32 37 37 25 13 13 15 9 10 17 19 18 12 7 11 13 15 30 37 40 49 49 43 43 48 55 58 58 61 63 63 59 54 53 53 53 54 54 53 50 47 49 52 49 42 37 37 39 41 41 38 38 38 34 29 31 33 33 34 31 20 21 33 39 41 44 47 49 54 57 54 50 49 49 47 45 44 43
22 15 28 47 50 44 38 33 35 38 28 18 18 21 21 19 19 22 26 24 15 8 8 7 9 28 41 40 40 40 41 50 57 60 61 61 64 64 60 57 55 55 55 54 53 53 54 54 53 53 53 50 43 39 38 39 40 41 39 37 36 34 30 28 30 30 31 31 23 18 31 40 41 44 47 50 55 58 55 51 50 50 48 45 43 43
23 20 30 47 51 44 38 35 34 26 14 14 23 25 25 28 25 18 16 20 22 17 14 10 13 32 41 33 34 43 49 57 61 61 63 64 64 62 59 58 57 58 57 55 54 54 55 57 58 58 55 49 44 41 39 38 40 41 40 38 35 34 31 27 26 27 28 30 27 19 25 36 41 45 48 50 55 59 57 54 51 49 48 46 44 43
24 26 31 39 42 40 38 36 30 18 12 19 27 28 28 30 27 17 13 21 28 26 26 21 17 31 40 34 40 52 55 59 62 62 64 64 63 62 60 59 59 59 58 57 56 56 57 61 63 63 59 50 44 43 41 40 41 41 41 39 36 34 32 29 25 23 25 27 29 24 21 30 38 43 48 50 52 57 59 57 53 50 49 47 44 43
24 23 25 33 40 41 37 30 20 16 20 26 29 32 31 32 33 28 26 31 27 22 24 16 11 29 45 44 51 58 57 61 63 61 62 63 64 62 61 62 62 62 62 62 61 59 60 63 66 66 60 51 46 45 43 43 43 43 42 40 37 35 33 33 28 20 22 25 28 26 22 26 33 39 47 51 50 53 58 59 57 53 50 48 46 43
22 18 19 25 27 28 28 22 19 28 34 32 31 34 34 37 38 35 36 34 21 22 30 16 10 34 53 54 58 61 61 64 63 61 63 65 66 65 63 65 66 67 69 69 66 64 64 66 67 65 60 53 48 46 45 46 46 45 45 42 38 36 34 35 31 21 20 24 27 27 24 24 27 31 41 50 53 54 57 60 60 56 52 49 47 44
20 18 19 17 10 10 15 15 22 36 41 36 35 35 36 39 37 35 36 28 17 27 37 25 25 48 60 58 61 64 64 65 64 63 65 66 67 67 67 69 71 72 73 73 71 69 69 70 68 64 61 54 49 48 48 49 49 48 47 44 40 37 36 36 33 26 19 22 27 27 25 24 23 23 32 46 56 58 59 60 59 57 54 50 47 45
20 20 21 20 19 19 20 23 27 32 35 36 33 32 37 37 32 32 34 28 27 33 36 36 42 54 60 61 65 67 65 64 65 65 65 67 69 71 73 75 75 75 74 74 73 71 71 71 68 63 60 56 51 50 50 51 51 49 47 45 41 38 37 37 36 32 23 19 27 30 28 26 23 20 25 39 53 59 61 61 59 56 54 50 47 46
22 24 24 25 27 24 23 28 30 30 32 33 28 31 37 32 28 33 34 32 35 30 28 41 51 53 60 65 65 66 66 65 66 65 65 70 73 76 79 80 79 78 77 76 74 72 72 69 65 62 60 59 57 54 53 53 52 49 47 45 41 39 38 38 37 34 27 20 27 34 33 30 27 24 22 30 44 56 62 63 60 56 53 50 47 45
26 27 24 23 26 26 25 28 29 29 30 28 27 33 36 29 27 32 32 33 35 28 32 49 54 53 60 63 62 66 67 66 67 68 70 75 78 80 82 83 83 81 80 79 76 73 70 66 63 61 61 63 63 60 57 55 53 51 48 44 41 39 38 39 38 36 31 23 25 36 39 34 29 28 25 25 35 50 60 63 61 57 53 50 47 44
23 25 21 20 27 30 28 28 28 27 25 27 31 33 28 24 26 28 30 33 35 35 44 54 54 54 59 60 62 65 67 70 73 75 78 80 81 83 85 87 87 85 83 80 76 72 69 65 63 61 62 66 65 63 61 57 54 54 50 45 42 39 38 39 39 38 34 26 22 30 38 35 28 27 28 29 34 45 55 62 62 57 53 49 47 45
20 23 22 22 29 32 29 27 27 26 25 29 31 26 21 23 27 26 28 33 35 41 49 53 53 56 58 59 62 65 70 78 81 80 83 84 84 86 90 90 89 85 81 78 75 71 69 67 65 63 64 66 66 65 65 61 57 55 51 46 43 40 38 38 40 39 35 29 22 24 31 33 28 26 29 32 38 44 51 59 61 57 53 50 48 47
19 21 22 21 25 31 31 28 27 30 31 29 26 25 23 25 26 25 28 32 36 43 51 52 51 56 60 61 63 68 77 84 85 83 84 86 89 91 91 89 86 81 76 71 68 65 63 62 61 60 61 62 64 65 65 64 60 56 52 47 43 41 39 38 40 40 35 30 24 21 26 29 28 28 29 32 39 45 49 55 58 56 53 50 49 47
16 17 21 18 18 28 31 28 30 33 25 19 23 26 25 24 24 27 32 34 35 42 49 52 53 58 61 62 66 74 81 87 89 86 84 89 93 93 90 86 80 73 66 62 59 60 61 62 61 61 64 66 68 68 66 66 64 60 55 49 43 41 40 40 39 39 35 29 24 21 24 27 27 27 28 30 34 41 46 50 54 54 52 50 49 47
13 14 19 15 14 24 30 30 31 22 10 14 24 23 20 22 24 29 35 37 37 42 49 54 56 58 61 65 72 77 81 88 93 90 87 91 92 86 82 79 74 70 70 72 74 76 78 80 80 80 80 81 80 78 75 74 71 67 61 53 45 41 40 40 39 37 34 29 24 22 23 26 27 25 25 28 33 38 43 46 49 51 50 49 49 48
12 12 15 13 15 24 29 27 18 7 10 25 27 18 17 21 24 30 37 39 40 47 53 53 53 57 65 72 76 78 81 88 97 98 93 92 87 78 75 76 76 78 80 82 82 81 79 78 78 77 75 74 73 75 76 74 73 71 65 56 48 42 40 39 38 35 31 27 24 22 22 26 28 25 23 26 33 38 43 46 46 47 48 49 49 48
13 10 12 14 16 19 19 13 7 13 29 35 27 21 23 24 25 33 39 43 48 51 50 49 54 63 72 76 79 82 84 90 100 104 98 92 87 80 79 79 76 74 74 73 71 69 67 65 63 61 60 58 57 60 64 64 64 65 61 53 47 42 39 38 35 32 29 26 24 22 22 25 28 27 24 25 32 39 43 45 44 44 46 48 49 48
12 11 13 14 13 13 14 16 19 26 33 32 26 25 25 24 27 31 38 49 52 48 45 51 61 69 75 79 84 87 87 91 101 105 103 100 94 86 81 78 73 69 66 63 62 61 60 60 60 57 54 51 50 52 54 54 55 56 54 49 44 41 39 36 32 29 27 25 23 21 22 26 28 29 28 27 30 37 44 44 42 43 47 49 51 50
11 14 14 12 13 13 15 16 16 14 15 22 28 28 24 24 26 28 40 52 50 45 50 60 66 71 76 81 86 88 88 92 102 107 106 104 96 84 76 71 66 64 62 61 62 63 61 59 59 57 55 51 47 46 48 49 49 49 49 46 42 40 38 33 28 26 26 24 22 20 21 26 29 29 30 31 31 35 41 44 42 43 48 51 52 52
11 14 14 14 17 18 16 12 8 8 14 23 31 31 27 25 31 36 39 44 47 51 58 64 68 72 78 81 83 85 86 90 100 106 105 100 89 77 70 64 59 58 59 60 62 63 63 61 58 56 55 50 45 42 43 44 45 45 45 44 42 41 36 29 26 26 25 23 21 19 20 25 29 29 31 34 34 33 36 42 44 46 48 52 53 53
11 14 16 18 22 22 20 16 15 19 25 27 30 31 28 29 38 35 24 30 49 59 59 64 69 73 78 80 80 82 85 88 96 101 99 94 82 70 64 62 59 59 61 62 63 64 65 64 58 53 52 48 44 41 39 39 40 41 42 43 42 39 33 27 26 26 24 22 22 20 19 23 28 31 32 34 35 35 34 38 44 48 50 52 54 53
16 19 19 20 22 22 21 20 23 30 31 26 28 32 34 35 35 26 22 37 56 59 59 66 71 72 76 77 78 82 86 89 93 94 91 86 77 67 61 58 56 59 61 61 62 61 61 62 58 52 50 46 41 38 37 36 36 37 41 42 40 36 30 27 27 27 24 22 21 20 20 21 25 31 34 34 36 37 35 36 43 49 51 53 54 54
16 15 16 17 19 21 21 20 22 28 27 26 30 34 33 32 30 30 38 50 55 57 62 67 69 72 75 75 77 82 86 89 93 91 85 80 74 67 61 55 54 58 60 61 60 56 55 59 58 52 48 43 37 34 34 35 34 34 36 39 38 35 30 29 29 27 24 22 21 21 22 23 24 30 35 35 36 38 36 36 41 48 52 55 55 54
14 14 17 20 18 17 17 14 12 19 26 31 34 34 31 32 35 41 49 51 51 56 62 65 69 72 72 74 78 82 84 89 93 92 86 78 72 66 59 53 52 54 58 60 58 53 52 56 55 49 44 37 31 29 31 34 35 33 32 36 37 33 30 29 29 27 24 23 22 22 25 26 25 28 34 36 36 36 36 36 41 48 52 56 57 54
15 17 19 22 19 15 16 16 17 26 34 33 31 32 34 36 39 43 47 50 52 55 59 64 70 71 69 73 78 80 84 88 92 93 87 77 70 64 56 50 48 50 52 55 53 49 48 49 47 42 35 27 23 25 27 31 34 31 28 32 33 30 28 27 28 28 26 25 23 23 27 29 28 28 31 34 35 35 35 36 41 48 52 55 57 56
19 19 20 24 26 23 26 31 33 36 36 31 28 31 34 36 38 39 43 49 53 55 60 66 69 68 68 72 76 79 83 86 90 92 86 75 68 62 54 48 46 46 47 48 47 44 41 39 36 33 28 21 18 20 22 25 28 27 24 25 27 27 26 27 29 31 29 26 24 25 29 32 31 29 30 33 36 36 36 37 41 48 53 56 58 58
24 24 24 26 30 29 32 36 36 35 34 31 27 28 31 35 38 39 41 47 53 58 62 65 66 67 68 70 75 79 82 84 88 91 86 76 67 59 52 46 43 43 44 45 44 41 36 33 30 27 22 16 14 16 18 19 20 20 18 18 22 26 27 29 32 33 31 26 25 27 31 34 34 31 30 34 36 37 38 39 42 48 55 58 60 60
25 24 23 25 29 30 32 35 34 32 32 29 26 28 32 35 39 40 42 48 54 60 64 64 64 66 68 70 75 79 80 83 87 90 88 79 67 59 52 46 42 41 41 42 42 39 36 34 31 27 24 18 13 13 13 13 13 13 12 15 22 27 30 32 34 33 30 27 27 29 32 35 34 32 30 34 37 36 37 40 43 49 56 61 62 63
26 23 23 27 31 33 35 36 33 30 30 27 27 31 33 36 39 42 44 48 54 60 64 64 63 65 68 71 74 77 79 82 86 90 90 81 69 60 53 47 44 42 38 36 36 35 34 33 31 29 28 24 18 16 15 12 10 10 12 17 23 28 32 34 34 32 29 28 29 31 33 34 33 31 30 34 37 37 37 39 43 48 56 61 64 65
29 28 27 29 32 34 35 33 29 29 31 28 28 32 35 38 41 43 45 49 55 59 62 63 63 64 67 70 73 74 76 80 84 88 89 83 73 63 55 50 48 45 40 36 32 30 29 29 29 28 27 24 22 21 19 17 16 16 18 21 25 28 31 33 33 32 30 29 30 30 31 31 31 29 28 32 37 38 37 39 42 46 52 58 62 63
31 30 28 27 31 33 32 29 26 29 32 29 28 32 36 37 40 43 46 51 55 58 60 62 64 64 64 67 71 72 73 76 81 84 86 84 77 68 60 54 49 46 43 38 32 28 26 25 27 28 26 23 23 22 21 19 18 19 21 23 25 28 30 31 31 31 30 29 28 27 28 29 29 28 27 30 35 38 39 39 41 44 48 54 58 60
29 29 26 26 30 31 29 26 25 27 29 28 28 32 35 37 39 43 46 50 55 58 59 60 62 63 63 64 68 70 71 73 76 80 83 83 78 70 63 58 54 50 48 42 36 30 24 22 24 26 25 23 23 22 20 18 16 16 19 22 24 25 27 28 29 29 28 27 26 25 26 28 29 28 26 27 31 36 38 40 41 43 46 51 55 57
Wind_Direction
317 323 324 311 308 311 307 302 300 303 304 304 305 305 303 302 305 312 313 313 314 306 303 307 307 306 310 314 317 322 324 324 328 332 329 327 325 321 317 315 315 317 320 322 320 312 308 308 307 308 304 292 284 282 279 279 271 259 253 247 242 240 239 242 246 249 254 256 255 254 252 252 250 247 248 249 247 244 242 239 237 235 233 233 226 215
318 325 323 310 305 300 302 300 295 297 298 299 303 302 300 299 303 307 308 311 313 303 301 307 307 307 310 313 316 319 322 323 328 329 325 325 323 317 314 313 312 315 317 316 313 309 306 308 309 311 308 297 288 285 281 281 277 266 257 251 247 244 240 236 239 244 250 255 258 260 260 260 258 254 251 252 253 250 246 241 237 234 231 231 226 216
319 326 319 306 298 296 302 299 294 295 295 299 304 300 297 303 305 303 307 312 312 303 302 306 306 306 309 313 316 319 320 321 327 325 319 320 317 311 311 311 310 310 311 311 311 308 306 310 311 308 304 299 295 292 289 287 282 269 259 257 253 251 247 239 236 237 243 251 257 262 265 263 261 260 256 254 254 253 248 243 238 234 231 229 225 219
320 326 316 300 297 303 305 301 300 298 297 299 300 297 297 305 305 302 308 312 309 304 303 306 306 304 308 313 316 320 320 318 322 321 313 312 309 306 308 308 307 307 307 308 308 306 306 309 313 310 305 301 298 294 289 290 289 271 259 262 262 259 256 251 243 238 239 247 254 258 262 261 258 258 256 251 248 249 247 243 237 232 231 228 225 220
319 323 315 305 306 310 309 308 309 302 300 301 298 297 299 303 299 295 302 306 306 304 305 312 311 302 307 311 310 315 320 315 318 319 309 305 303 302 303 302 303 304 304 306 305 307 313 317 321 321 316 309 304 302 294 287 291 292 280 274 272 269 265 261 255 247 241 244 247 250 253 255 251 249 249 246 243 245 246 245 238 232 230 228 226 220
320 319 314 313 312 312 309 311 315 307 301 300 300 303 301 299 295 294 303 311 312 306 306 316 317 300 305 306 304 312 317 314 320 318 305 301 298 299 302 303 305 307 305 304 303 306 313 319 323 323 319 311 306 311 311 302 294 297 303 295 283 277 272 266 261 254 248 245 244 243 246 251 251 249 249 248 248 250 251 250 243 233 227 226 225 220
319 315 314 314 313 311 308 312 317 307 298 298 303 305 297 296 301 304 311 316 313 304 304 309 303 290 298 299 303 312 313 315 322 315 302 297 296 300 306 310 312 312 311 309 308 308 310 316 323 326 324 318 310 308 311 311 304 297 301 305 299 289 280 270 260 253 249 248 245 241 240 246 252 254 256 256 256 256 254 252 247 235 225 222 222 219
317 312 311 311 309 308 308 313 312 298 293 294 297 296 290 296 303 306 312 313 309 304 301 301 296 282 285 294 304 313 311 315 317 306 296 294 300 306 308 312 316 317 317 317 317 317 316 318 321 324 325 323 317 309 306 305 304 302 301 302 304 302 294 279 262 251 247 246 246 244 241 241 246 252 258 260 258 257 255 252 248 239 225 219 220 217
315 309 311 311 308 307 307 307 299 291 289 287 288 289 291 299 304 306 311 311 310 305 295 295 299 283 273 292 306 315 309 311 308 299 300 301 304 307 309 312 315 317 319 321 322 321 319 319 319 319 320 320 317 311 306 302 300 300 299 299 300 301 303 294 273 254 245 241 242 245 243 239 239 245 253 258 256 253 251 249 247 243 229 218 218 217
313 310 312 311 306 305 303 297 290 287 286 285 289 291 294 302 305 308 311 307 306 294 282 295 305 292 277 294 307 322 313 311 309 306 307 307 307 309 314 318 317 317 319 321 322 321 320 319 319 318 317 318 318 314 309 305 301 297 294 293 295 296 298 299 288 265 247 237 235 239 241 240 239 239 242 250 252 248 247 246 244 243 232 219 216 216
310 312 312 309 304 299 293 290 289 288 289 294 302 305 305 308 310 310 309 302 295 276 282 298 313 317 294 295 308 328 316 309 308 308 307 307 309 313 319 322 321 321 321 322 322 320 318 317 317 318 317 317 320 319 315 309 304 298 292 289 290 293 294 293 294 282 257 239 233 233 235 239 242 240 238 244 248 247 246 244 240 239 233 222 216 215
316 319 319 313 301 288 283 285 284 283 291 304 314 318 315 318 320 314 311 302 261 271 292 298 311 311 289 290 306 308 298 296 300 315 323 320 320 322 324 325 322 322 323 322 321 318 316 314 314 315 316 317 319 319 318 313 307 301 294 290 287 288 292 292 292 293 277 251 236 232 231 234 239 239 236 239 244 246 246 244 241 237 233 225 217 215
323 328 330 315 286 275 280 285 289 291 303 316 323 330 329 327 325 316 318 306 252 282 296 300 310 300 279 288 306 306 297 296 307 323 328 327 328 329 328 328 325 323 323 322 320 318 317 316 314 314 315 317 319 319 317 313 309 303 297 294 291 287 291 295 290 291 291 268 244 233 229 230 234 238 237 237 241 243 244 244 243 239 233 228 220 214
330 342 359 322 283 293 298 303 310 311 318 327 332 344 347 330 326 314 314 307 284 291 298 303 308 293 285 297 316 313 312 313 312 312 315 321 326 327 327 329 327 324 323 321 319 319 319 318 317 316 316 317 318 319 317 312 308 302 297 297 297 290 291 296 290 286 293 282 256 235 227 228 231 234 236 237 238 239 239 240 242 241 237 232 226 219
322 321 331 313 290 294 308 314 322 322 325 327 324 336 345 349 359 308 290 293 288 289 295 300 303 288 292 301 303 305 306 304 301 298 302 310 312 312 314 319 321 321 320 317 316 315 316 317 316 316 315 315 317 318 316 314 310 303 297 297 299 294 292 294 289 284 290 289 267 241 228 227 229 231 232 232 234 236 236 236 239 241 238 236 232 226
308 295 304 311 299 297 308 312 321 324 324 321 318 330 335 324 310 286 274 278 279 279 286 291 286 283 289 294 299 302 300 295 296 299 305 307 307 308 310 315 318 319 318 317 316 315 314 315 314 313 313 313 316 318 316 314 312 307 302 297 295 294 293 293 289 285 287 288 273 247 229 224 226 230 230 229 231 235 235 234 236 238 238 237 234 232
307 300 301 310 309 308 311 313 321 325 323 318 321 324 320 316 305 286 277 276 276 273 279 287 288 288 292 298 301 301 297 300 308 313 314 312 311 314 317 320 323 323 323 323 320 319 317 315 314 312 313 313 314 315 314 313 310 307 306 302 295 291 290 290 288 284 284 286 275 253 229 220 223 228 230 228 228 232 234 232 234 237 237 237 234 233
301 302 303 308 310 309 312 318 324 329 329 325 322 322 322 321 316 307 295 274 274 275 280 293 295 292 296 302 303 308 310 313 318 319 316 313 314 317 320 323 326 327 327 324 321 321 321 321 321 318 316 315 314 313 311 310 308 305 304 304 301 295 288 287 288 282 280 287 279 257 233 219 220 227 230 228 225 227 231 231 233 235 236 236 234 232
300 306 305 306 307 309 315 321 324 323 327 329 324 330 339 332 324 326 313 292 304 297 284 297 295 291 294 302 309 315 317 317 320 317 314 315 316 319 322 323 325 327 326 323 322 322 322 323 324 324 322 318 314 312 309 308 308 305 303 302 302 298 286 282 287 280 273 283 280 254 235 221 218 224 229 229 226 226 228 231 233 234 236 236 233 232
302 305 299 300 304 310 315 320 322 323 329 337 335 348 358 338 318 320 303 290 295 289 287 295 288 285 292 303 310 314 315 314 315 316 317 319 318 320 323 324 326 327 326 324 324 323 321 320 321 325 328 324 316 311 311 313 313 309 306 302 300 299 289 278 281 279 270 273 272 240 228 223 220 223 228 229 228 227 226 228 231 232 235 237 234 232
303 293 288 299 306 311 316 320 323 325 332 346 345 348 348 336 329 317 301 295 294 282 290 306 280 282 293 307 310 310 312 313 314 317 319 319 319 321 325 326 327 327 325 324 325 322 320 318 318 323 328 325 318 313 315 321 322 318 314 309 302 300 298 286 277 276 271 268 265 235 221 222 221 221 225 228 226 225 224 225 228 228 231 235 234 232
303 296 291 299 306 311 315 317 320 323 329 339 340 341 335 333 336 325 305 304 300 288 290 300 283 286 298 312 311 309 313 314 316 319 319 319 321 323 326 326 326 325 324 323 323 321 319 317 316 319 324 324 320 316 318 323 327 326 321 317 308 300 302 300 284 274 270 265 260 243 224 224 222 218 220 225 227 225 223 223 226 226 227 231 233 232
304 302 295 296 301 306 310 314 318 318 314 318 324 329 329 330 329 311 290 300 299 292 291 287 274 287 300 312 313 312 314 315 317 319 319 320 323 324 326 326 325 324 322 321 320 319 317 315 314 316 321 321 319 318 319 320 324 326 324 322 316 305 299 304 300 277 265 262 255 247 229 222 224 221 217 220 226 227 223 222 224 225 225 228 231 232
307 305 297 296 301 305 311 316 316 307 312 319 323 327 326 324 320 307 295 298 296 292 296 286 258 290 303 314 315 314 315 316 318 320 320 322 324 325 325 324 323 322 320 318 318 317 315 313 312 315 318 318 316 316 317 318 320 322 324 322 318 311 301 301 306 287 260 256 251 247 237 222 223 225 221 217 220 224 223 221 223 224 224 226 229 231
305 298 299 306 310 315 320 324 318 314 320 324 324 324 322 320 321 316 309 307 298 294 302 294 266 296 307 315 315 315 317 317 319 322 323 324 324 325 324 323 322 320 318 317 316 315 313 312 313 314 316 316 313 313 315 316 317 318 320 321 317 312 304 300 305 297 264 250 244 241 240 230 223 227 227 222 218 220 221 220 222 222 221 224 227 229
301 291 296 301 296 302 308 305 308 312 315 316 318 322 321 322 325 320 312 308 298 299 301 291 284 299 308 314 315 317 319 319 322 324 324 324 323 322 322 321 320 318 316 316 315 314 313 312 313 314 314 313 311 310 312 313 314 314 316 318 317 312 306 302 304 304 281 251 240 238 239 235 223 223 232 229 222 220 219 218 219 219 218 219 224 228
303 295 296 292 278 277 284 291 303 306 304 306 314 320 321 323 327 319 306 297 297 300 296 292 296 300 307 314 316 318 320 320 322 324 324 323 321 319 319 318 317 315 314 313 312 311 311 312 312 312 312 311 309 308 309 309 311 312 312 314 314 311 307 304 303 305 297 259 239 241 246 242 227 221 231 231 226 222 221 218 216 217 218 218 222 228
305 298 299 298 292 290 293 299 307 307 302 305 313 318 320 324 324 312 302 301 305 300 291 300 306 303 306 313 316 318 320 320 321 323 323 320 318 317 317 316 316 315 315 314 312 311 311 311 311 311 311 311 310 307 307 306 306 308 308 309 310 309 306 304 302 302 299 271 241 242 250 250 237 225 223 228 227 222 221 220 216 216 219 218 219 225
304 298 300 302 298 298 298 301 306 306 305 310 314 315 316 320 318 309 307 312 312 299 293 305 308 304 307 314 317 319 320 319 319 320 320 318 318 318 318 318 317 317 316 316 314 313 312 311 311 311 309 310 310 308 306 304 302 303 304 304 303 304 303 301 300 298 295 281 246 240 248 251 242 229 219 217 221 220 219 219 216 215 217 217 217 221
298 296 301 302 299 298 299 304 308 308 308 310 314 316 315 317 320 316 315 320 315 304 303 307 307 307 313 318 320 321 320 317 317 319 319 320 321 320 319 318 318 317 317 316 315 314 312 312 311 310 308 307 308 307 306 304 300 300 300 300 298 298 298 297 297 295 292 283 254 238 244 246 238 228 218 207 206 213 217 217 216 214 214 215 216 219
289 291 296 301 300 298 303 312 313 312 311 310 317 328 327 322 323 320 318 320 317 310 310 311 308 310 317 322 322 321 320 318 319 321 321 322 322 320 319 318 318 317 317 316 315 314 312 311 311 308 306 306 305 305 305 303 300 297 296 296 294 293 293 291 292 292 288 281 263 240 239 240 230 221 217 206 199 203 211 214 216 215 213 213 215 217
286 288 294 305 302 299 310 319 316 315 315 317 332 344 336 326 323 317 315 320 319 315 313 311 309 312 318 322 322 322 322 321 321 322 322 321 321 320 319 319 319 319 318 317 316 314 311 311 309 306 304 303 302 302 302 300 298 295 293 292 290 289 288 286 287 289 285 279 268 246 237 237 230 220 218 212 202 199 203 209 213 213 211 212 214 217
288 286 297 310 300 300 315 323 318 319 321 329 345 345 334 327 318 311 313 318 322 318 313 310 310 314 319 322 322 323 324 322 321 321 320 320 321 322 322 321 321 319 316 312 308 305 304 303 301 298 297 296 296 296 296 296 295 293 291 288 285 285 285 282 283 286 283 275 267 251 237 236 232 223 219 218 211 203 201 203 208 209 208 209 213 218
283 285 299 306 290 299 316 321 318 321 319 326 339 343 337 329 319 314 314 317 320 319 313 312 315 318 321 322 323 324 323 322 320 319 319 321 323 324 323 320 317 311 306 302 300 299 298 296 295 293 292 291 290 289 289 288 289 288 287 285 282 281 281 279 279 282 279 270 263 252 238 234 230 221 217 219 216 210 204 202 204 206 206 208 213 218
279 287 297 295 283 293 310 319 321 316 297 315 331 347 342 332 326 320 316 316 319 318 316 318 319 320 322 322 323 324 323 322 321 319 321 325 326 323 319 314 309 305 303 302 301 301 301 300 298 296 294 291 288 284 282 280 280 280 280 280 278 276 275 274 274 277 273 264 258 251 239 232 227 217 213 215 214 212 208 204 204 205 205 207 211 215
283 292 295 293 288 289 298 301 284 287 301 313 331 347 341 334 331 324 316 315 319 320 320 322 321 322 323 324 324 324 323 323 322 322 325 329 327 322 317 315 313 310 310 309 309 312 313 311 309 307 303 297 289 283 280 276 274 272 270 270 271 269 268 267 269 270 266 257 253 249 238 233 228 218 211 209 210 210 208 204 204 204 204 205 208 211
278 295 296 288 283 279 272 269 275 289 301 314 334 347 344 332 327 322 313 312 319 325 325 324 323 323 324 325 326 326 325 324 323 325 330 330 327 324 323 322 321 320 320 320 321 320 320 317 315 314 310 303 294 287 282 277 273 268 263 261 262 261 260 261 262 262 257 251 248 245 236 232 230 223 212 206 206 208 207 204 203 203 204 205 206 208
275 297 298 279 272 270 264 274 286 282 288 313 331 343 345 332 324 320 311 310 319 329 329 326 325 325 325 327 327 326 327 327 325 325 329 329 327 327 327 325 326 326 326 326 324 322 319 317 315 313 311 307 301 293 286 279 273 265 258 255 254 254 254 254 253 250 247 245 243 241 233 229 230 226 216 208 205 207 207 206 204 204 205 206 207 207
281 298 294 272 267 268 260 267 279 254 272 308 329 340 343 334 326 321 311 308 320 331 330 327 327 327 327 327 327 326 328 331 328 325 327 328 327 328 328 327 328 328 327 326 324 321 319 317 313 310 308 307 304 298 290 282 273 264 257 252 251 250 249 246 241 237 237 240 239 235 231 229 228 226 219 212 208 208 208 208 206 207 208 209 209 209
282 288 278 260 261 267 263 259 265 272 286 310 331 339 338 329 324 321 308 310 323 328 329 327 326 326 327 326 326 326 328 333 332 329 328 329 328 327 328 327 327 328 328 327 326 323 320 318 313 307 303 303 303 300 292 284 275 264 255 250 248 247 243 235 229 226 229 235 235 230 230 231 229 225 221 218 214 210 210 210 209 209 211 211 211 210
284 283 274 263 270 276 265 257 271 286 300 321 335 335 331 323 320 316 306 315 322 325 326 326 325 326 326 325 325 326 328 333 335 332 330 329 328 327 326 325 325 328 329 328 328 326 323 319 315 306 299 299 302 299 293 288 280 267 255 250 248 246 239 228 222 219 222 230 232 231 232 235 232 226 222 221 218 213 212 213 211 211 211 212 212 211
277 278 270 267 274 279 272 267 277 292 312 333 334 329 329 323 317 314 312 315 320 323 324 325 326 327 327 325 325 327 329 334 337 335 332 331 329 327 325 324 326 331 332 329 328 327 324 321 318 311 302 300 302 300 295 292 288 276 260 250 246 243 236 225 218 217 220 226 228 232 238 240 237 228 223 222 220 216 215 215 213 212 211 211 212 212
273 271 274 281 284 284 283 275 272 295 319 333 330 327 328 323 317 316 315 316 320 322 323 325 328 328 327 325 326 329 332 335 339 339 337 333 330 328 326 326 328 331 332 329 327 327 325 324 323 319 311 308 307 302 297 292 290 283 266 250 244 240 231 222 219 221 224 225 227 232 240 245 243 233 225 222 221 220 219 218 214 212 211 211 210 211
273 264 272 288 293 282 274 274 286 308 322 331 330 324 324 323 320 319 318 319 322 323 324 326 328 329 328 327 328 332 335 337 340 342 339 334 331 330 327 326 329 331 331 329 327 327 328 328 329 328 326 324 319 309 302 294 289 284 269 251 241 237 232 226 225 228 228 227 228 232 239 244 245 237 226 221 223 224 224 221 217 213 212 211 211 211
287 282 280 290 295 289 284 291 303 317 325 329 327 321 322 324 323 322 323 323 323 325 327 329 329 329 329 330 331 334 338 339 341 344 342 337 334 333 329 327 330 331 331 330 328 327 329 331 334 337 341 343 334 320 312 302 293 286 271 251 239 235 232 228 228 232 231 228 228 233 238 241 242 236 225 219 223 227 227 224 221 216 213 213 212 211
294 292 283 288 299 298 294 301 313 321 323 323 323 322 324 324 322 324 328 328 327 328 330 330 330 329 330 332 334 337 340 340 341 345 346 342 337 336 332 328 330 331 331 330 328 325 326 327 329 335 342 351 350 338 331 323 310 296 275 245 229 227 225 223 226 230 229 227 229 233 238 239 239 234 223 218 223 228 227 225 222 218 215 214 212 211
296 292 280 288 300 297 294 306 319 321 318 320 323 323 323 321 322 328 332 331 329 330 330 331 332 331 332 335 337 339 341 341 341 346 350 346 340 338 334 331 331 332 331 331 330 326 322 321 322 323 326 332 339 338 335 335 327 308 270 233 222 223 222 220 221 224 225 225 229 233 236 238 237 233 224 219 223 227 225 223 222 219 216 215 212 209
297 289 280 290 298 293 294 309 321 317 314 319 324 324 322 321 324 330 333 331 330 330 330 332 335 334 334 337 340 340 341 342 344 348 351 349 344 340 337 335 334 333 330 329 328 324 320 318 319 323 326 328 328 321 313 309 301 278 247 230 225 225 223 219 219 222 224 225 229 233 235 237 237 235 227 223 224 226 224 223 221 218 215 214 212 209
287 283 285 292 293 292 299 311 318 314 312 319 323 322 322 324 327 331 332 330 330 331 332 334 336 337 337 339 340 340 342 345 346 348 351 352 349 345 342 340 339 336 331 326 324 323 322 320 319 323 328 332 331 323 313 302 285 266 251 241 234 230 225 220 220 224 226 227 231 235 236 237 238 238 233 227 225 224 223 222 220 217 214 212 210 209
285 287 294 291 286 291 302 311 314 311 312 320 323 321 323 327 328 328 329 329 331 333 334 336 337 338 338 339 340 341 344 347 347 348 351 354 353 351 348 346 344 341 336 330 324 321 321 320 320 323 325 329 330 326 317 306 290 273 261 252 244 237 230 225 226 230 232 234 236 237 237 238 240 241 239 232 226 223 223 222 220 216 214 212 210 209
294 296 299 290 287 294 303 308 308 307 312 321 323 320 321 324 325 326 328 330 332 334 336 337 338 338 338 339 340 342 345 349 348 348 350 354 355 355 353 350 349 348 346 342 337 331 325 318 316 317 318 320 322 321 318 314 301 282 269 260 254 246 238 235 237 239 241 242 241 240 241 242 242 242 238 231 225 222 223 224 222 218 215 213 212 212
Height
3115 3113 3111 3109 3108 3108 3107 3106 3105 3105 3104 3102 3101 3098 3095 3092 3087 3084 3084 3084 3082 3073 3067 3070 3065 3054 3047 3044 3047 3048 3045 3043 3043 3042 3041 3039 3035 3031 3027 3023 3021 3018 3016 3014 3013 3011 3009 3008 3007 3005 3003 3000 2997 2995 2994 2994 2992 2990 2989 2987 2987 2988 2991 2993 2996 2999 3001 3002 3003 3005 3006 3008 3010 3011 3012 3013 3015 3018 3020 3022 3024 3026 3029 3031 3031 3031
3113 3111 3109 3108 3107 3106 3105 3104 3103 3103 3102 3101 3100 3097 3094 3092 3087 3084 3083 3081 3081 3073 3066 3069 3065 3053 3044 3040 3043 3045 3041 3038 3040 3040 3036 3035 3031 3025 3022 3019 3017 3015 3012 3010 3008 3006 3004 3002 3000 2999 2998 2996 2993 2990 2989 2988 2988 2987 2985 2984 2983 2983 2984 2986 2988 2992 2995 2997 3000 3001 3003 3005 3006 3007 3008 3009 3011 3013 3016 3018 3020 3022 3024 3027 3029 3029
3110 3110 3108 3106 3105 3105 3104 3103 3101 3100 3100 3099 3099 3096 3091 3090 3086 3081 3080 3079 3077 3070 3065 3067 3065 3052 3039 3035 3037 3038 3038 3035 3038 3038 3032 3033 3029 3020 3019 3016 3012 3010 3006 3004 3002 3000 2999 2997 2995 2994 2993 2992 2989 2987 2984 2982 2982 2982 2981 2980 2979 2979 2979 2980 2982 2984 2987 2991 2995 2998 2999 3001 3001 3002 3004 3006 3007 3009 3011 3012 3015 3018 3020 3023 3025 3027
3106 3106 3106 3104 3104 3103 3102 3101 3100 3098 3097 3097 3097 3095 3090 3089 3086 3079 3076 3075 3071 3065 3063 3064 3063 3052 3035 3029 3030 3032 3033 3033 3036 3037 3029 3028 3026 3018 3017 3014 3008 3005 3000 2998 2997 2995 2994 2992 2991 2989 2987 2986 2985 2983 2981 2978 2977 2977 2976 2975 2975 2975 2975 2976 2977 2977 2980 2985 2989 2992 2994 2995 2996 2996 2998 3000 3001 3002 3004 3007 3010 3013 3015 3019 3021 3024
3104 3104 3103 3102 3101 3100 3099 3098 3099 3096 3095 3095 3094 3093 3089 3087 3086 3080 3076 3073 3066 3059 3058 3060 3057 3048 3033 3021 3022 3026 3028 3029 3033 3034 3026 3022 3021 3016 3014 3010 3005 3002 2998 2995 2992 2990 2989 2987 2986 2985 2983 2981 2980 2980 2978 2975 2973 2971 2971 2971 2970 2970 2970 2971 2973 2974 2975 2979 2982 2985 2986 2988 2989 2990 2990 2992 2994 2996 2999 3002 3006 3008 3011 3014 3017 3020
3102 3101 3100 3100 3098 3098 3096 3095 3097 3095 3092 3091 3091 3091 3088 3085 3083 3080 3077 3073 3066 3054 3051 3059 3053 3041 3032 3017 3013 3022 3022 3023 3028 3028 3022 3017 3015 3012 3008 3005 3002 3000 2996 2994 2991 2988 2985 2983 2982 2981 2980 2979 2977 2977 2976 2974 2971 2968 2967 2968 2967 2966 2966 2966 2968 2970 2970 2971 2974 2977 2978 2979 2981 2983 2984 2986 2990 2992 2995 2998 3001 3004 3006 3009 3012 3015
3100 3099 3098 3097 3096 3095 3094 3093 3095 3093 3090 3089 3088 3088 3085 3083 3080 3078 3076 3073 3070 3056 3047 3058 3053 3039 3029 3010 3009 3020 3016 3017 3023 3020 3016 3013 3009 3006 3003 3000 2997 2995 2992 2990 2988 2986 2983 2980 2978 2978 2977 2976 2974 2973 2973 2972 2971 2968 2965 2964 2964 2964 2963 2962 2962 2964 2965 2965 2966 2968 2971 2973 2975 2977 2980 2983 2987 2989 2992 2995 2996 2998 3001 3003 3007 3010
3098 3097 3096 3095 3094 3093 3091 3092 3092 3090 3089 3087 3086 3085 3081 3081 3078 3075 3075 3071 3068 3058 3044 3051 3052 3041 3024 3002 3007 3021 3014 3014 3019 3013 3011 3009 3005 3001 2998 2996 2993 2990 2988 2985 2983 2981 2980 2978 2976 2975 2974 2973 2971 2969 2968 2967 2967 2966 2963 2962 2961 2961 2960 2958 2957 2957 2958 2960 2960 2961 2963 2967 2969 2971 2976 2980 2983 2985 2987 2989 2990 2993 2996 2998 3002 3005
3096 3094 3094 3093 3090 3090 3089 3089 3088 3087 3087 3085 3084 3082 3078 3078 3075 3072 3072 3067 3065 3057 3041 3041 3047 3040 3018 2999 3009 3020 3013 3013 3013 3008 3007 3004 3000 2998 2994 2991 2989 2987 2984 2981 2979 2976 2975 2974 2973 2974 2972 2970 2968 2966 2964 2962 2961 2961 2961 2959 2957 2956 2955 2953 2952 2952 2951 2953 2955 2955 2956 2959 2962 2966 2971 2975 2978 2980 2981 2983 2985 2988 2992 2994 2997 3000
3093 3092 3091 3090 3087 3086 3086 3086 3086 3085 3084 3082 3081 3080 3077 3075 3071 3069 3067 3063 3063 3054 3039 3037 3042 3037 3013 2998 3011 3017 3011 3011 3008 3005 3004 2999 2997 2994 2989 2986 2984 2983 2981 2978 2976 2973 2972 2970 2969 2969 2967 2965 2963 2961 2960 2958 2956 2954 2955 2955 2953 2951 2949 2947 2947 2946 2945 2945 2947 2948 2948 2951 2955 2959 2964 2968 2971 2974 2975 2978 2980 2983 2986 2989 2991 2995
3092 3091 3089 3087 3084 3083 3084 3083 3083 3083 3081 3080 3079 3076 3073 3070 3067 3066 3062 3061 3059 3049 3039 3035 3040 3037 3012 2995 3011 3018 3010 3008 3004 3002 3000 2995 2993 2989 2985 2983 2981 2979 2977 2975 2973 2970 2968 2965 2963 2962 2960 2958 2957 2956 2955 2953 2951 2949 2948 2949 2947 2944 2943 2942 2941 2940 2939 2939 2939 2940 2941 2944 2948 2952 2957 2960 2964 2968 2970 2972 2975 2978 2982 2984 2986 2990
3088 3088 3086 3083 3081 3080 3081 3081 3081 3081 3079 3079 3078 3073 3069 3066 3064 3061 3058 3059 3056 3044 3036 3033 3038 3038 3012 2995 3009 3015 3009 3006 3002 2998 2995 2991 2989 2986 2983 2980 2978 2976 2973 2971 2969 2966 2963 2959 2956 2953 2950 2949 2949 2948 2948 2946 2945 2943 2942 2942 2941 2939 2938 2937 2937 2935 2933 2933 2932 2933 2935 2938 2942 2945 2949 2953 2957 2962 2965 2968 2971 2975 2978 2980 2982 2985
3082 3083 3082 3080 3078 3078 3079 3079 3079 3078 3076 3076 3075 3072 3068 3065 3063 3059 3056 3056 3053 3042 3031 3029 3035 3029 3006 3000 3008 3007 3004 3004 3001 2997 2993 2989 2987 2984 2981 2977 2975 2973 2970 2967 2964 2961 2959 2955 2951 2948 2945 2943 2941 2940 2940 2939 2938 2938 2937 2936 2935 2934 2933 2931 2931 2930 2928 2926 2926 2926 2928 2932 2936 2939 2942 2946 2950 2955 2960 2964 2967 2969 2972 2975 2977 2979
3076 3077 3078 3078 3077 3077 3076 3076 3076 3073 3071 3071 3070 3070 3069 3067 3066 3063 3058 3053 3048 3041 3025 3023 3031 3017 2999 3003 3007 3002 3002 3001 2998 2996 2991 2988 2985 2982 2980 2976 2972 2970 2967 2963 2960 2956 2953 2950 2946 2943 2941 2938 2936 2935 2935 2933 2933 2932 2932 2931 2929 2928 2928 2926 2924 2923 2922 2920 2920 2920 2922 2926 2930 2933 2937 2940 2944 2948 2954 2959 2962 2964 2967 2971 2974 2975
3075 3075 3076 3077 3076 3076 3074 3074 3075 3072 3069 3069 3068 3068 3068 3069 3071 3067 3062 3052 3046 3041 3025 3020 3027 3010 2994 3002 3003 2999 3000 2997 2994 2992 2987 2985 2982 2978 2975 2972 2969 2965 2962 2959 2955 2952 2948 2944 2941 2937 2935 2933 2932 2931 2931 2930 2928 2927 2927 2925 2922 2921 2921 2920 2918 2918 2917 2914 2914 2915 2916 2919 2923 2926 2931 2935 2938 2941 2947 2953 2957 2960 2963 2966 2971 2973
3075 3073 3075 3076 3074 3074 3074 3073 3074 3073 3070 3067 3066 3068 3067 3068 3069 3064 3058 3050 3044 3041 3026 3020 3022 3005 2992 2998 2999 2996 2994 2992 2990 2986 2983 2982 2979 2976 2972 2969 2968 2964 2961 2957 2952 2948 2945 2942 2939 2934 2931 2929 2928 2927 2927 2926 2923 2921 2920 2918 2916 2914 2914 2913 2911 2911 2912 2909 2908 2909 2910 2912 2915 2921 2925 2928 2932 2935 2940 2947 2952 2955 2958 2961 2966 2971
3075 3069 3070 3074 3071 3070 3071 3071 3072 3071 3070 3067 3065 3065 3064 3064 3063 3057 3052 3045 3042 3039 3026 3021 3016 2998 2990 2994 2994 2994 2990 2987 2988 2984 2982 2981 2977 2976 2973 2969 2967 2963 2959 2955 2950 2947 2943 2940 2936 2931 2927 2924 2923 2923 2921 2921 2918 2915 2913 2910 2908 2908 2908 2908 2904 2904 2907 2904 2901 2902 2904 2905 2908 2914 2917 2921 2925 2929 2933 2940 2945 2950 2954 2957 2961 2966
3078 3067 3063 3070 3070 3067 3068 3068 3068 3068 3068 3066 3063 3061 3058 3058 3058 3056 3048 3039 3039 3036 3024 3023 3016 2994 2989 2992 2988 2992 2990 2986 2986 2983 2980 2978 2974 2973 2969 2965 2963 2959 2955 2951 2947 2943 2939 2936 2932 2927 2924 2921 2920 2919 2916 2915 2913 2910 2907 2904 2902 2901 2902 2902 2899 2899 2901 2899 2895 2895 2898 2900 2902 2907 2911 2914 2919 2924 2927 2932 2938 2944 2948 2951 2955 2959
3081 3069 3059 3061 3066 3066 3066 3066 3064 3064 3066 3064 3061 3060 3057 3056 3055 3055 3049 3039 3038 3035 3021 3022 3017 2994 2990 2991 2985 2989 2990 2984 2983 2980 2977 2974 2971 2968 2964 2961 2958 2954 2951 2947 2942 2939 2935 2933 2929 2925 2922 2918 2916 2914 2911 2908 2906 2904 2902 2899 2897 2895 2896 2896 2894 2894 2895 2893 2890 2889 2891 2894 2896 2901 2906 2909 2913 2917 2920 2924 2930 2936 2941 2945 2949 2953
3081 3075 3060 3055 3061 3063 3063 3064 3061 3058 3059 3059 3058 3057 3057 3058 3056 3054 3051 3042 3040 3036 3022 3020 3015 2994 2990 2995 2990 2988 2988 2983 2980 2976 2974 2971 2967 2964 2961 2956 2953 2949 2945 2942 2938 2934 2931 2929 2926 2922 2919 2915 2911 2908 2905 2903 2900 2898 2895 2893 2891 2890 2889 2889 2889 2888 2888 2887 2885 2883 2885 2889 2891 2895 2899 2902 2906 2909 2913 2918 2923 2929 2934 2938 2943 2947
3078 3076 3062 3051 3056 3060 3060 3061 3059 3055 3055 3054 3053 3053 3052 3054 3054 3050 3045 3041 3041 3035 3023 3021 3011 2992 2992 2998 2993 2989 2986 2982 2978 2973 2970 2967 2963 2961 2957 2952 2948 2944 2940 2937 2934 2930 2926 2924 2921 2918 2916 2911 2907 2903 2900 2898 2894 2891 2889 2886 2885 2884 2883 2882 2882 2882 2882 2881 2879 2877 2878 2881 2883 2886 2891 2896 2899 2902 2906 2912 2916 2922 2927 2932 2936 2940
3074 3073 3063 3052 3050 3054 3056 3058 3057 3055 3054 3052 3050 3050 3049 3048 3049 3045 3038 3036 3038 3031 3024 3023 3005 2984 2990 2998 2992 2989 2984 2979 2976 2970 2965 2963 2960 2956 2952 2948 2944 2940 2936 2933 2930 2927 2922 2919 2916 2913 2911 2907 2903 2899 2896 2893 2889 2885 2883 2880 2878 2877 2876 2875 2873 2874 2874 2873 2872 2871 2871 2873 2875 2878 2883 2888 2892 2895 2899 2904 2909 2915 2920 2924 2929 2933
3071 3069 3062 3053 3050 3051 3053 3054 3054 3052 3052 3051 3049 3048 3047 3045 3046 3045 3036 3030 3031 3026 3022 3022 3002 2980 2987 2996 2989 2985 2981 2975 2972 2967 2961 2958 2955 2952 2948 2943 2940 2935 2932 2928 2925 2923 2918 2914 2910 2907 2905 2903 2898 2894 2891 2887 2884 2881 2879 2876 2873 2871 2870 2868 2866 2865 2865 2865 2864 2864 2863 2864 2867 2870 2874 2880 2885 2888 2892 2897 2903 2908 2912 2917 2922 2926
3069 3065 3059 3052 3047 3048 3049 3049 3049 3049 3048 3048 3046 3044 3043 3041 3040 3040 3034 3028 3026 3021 3018 3015 2996 2978 2984 2991 2985 2980 2976 2972 2968 2963 2958 2953 2949 2947 2943 2938 2934 2930 2926 2923 2920 2918 2914 2909 2905 2901 2899 2897 2893 2889 2886 2883 2880 2877 2875 2872 2868 2866 2864 2862 2859 2856 2857 2857 2857 2858 2857 2857 2859 2863 2867 2872 2877 2882 2887 2891 2896 2901 2905 2911 2915 2919
3066 3064 3059 3053 3047 3044 3044 3044 3043 3043 3042 3041 3041 3040 3039 3037 3035 3032 3028 3025 3022 3018 3016 3009 2990 2977 2980 2983 2978 2975 2971 2967 2963 2960 2956 2950 2944 2940 2937 2933 2929 2924 2919 2915 2913 2911 2907 2903 2899 2895 2893 2890 2887 2883 2880 2877 2875 2872 2870 2867 2864 2860 2858 2856 2853 2850 2850 2850 2851 2852 2852 2852 2853 2856 2861 2866 2870 2875 2880 2885 2890 2895 2899 2903 2908 2912
3063 3061 3060 3057 3054 3049 3046 3045 3043 3040 3037 3037 3038 3037 3034 3032 3031 3026 3023 3022 3017 3012 3012 3005 2988 2976 2976 2976 2973 2970 2966 2961 2958 2956 2952 2946 2940 2935 2931 2928 2923 2918 2913 2909 2906 2903 2900 2896 2892 2889 2886 2883 2880 2877 2874 2871 2869 2866 2863 2861 2858 2855 2852 2850 2848 2845 2844 2844 2845 2846 2847 2847 2848 2850 2855 2860 2863 2867 2873 2877 2883 2888 2892 2897 2901 2905
3058 3057 3056 3055 3053 3051 3047 3045 3044 3041 3037 3035 3036 3035 3031 3029 3027 3024 3022 3018 3013 3007 3004 3000 2990 2975 2970 2971 2967 2963 2961 2956 2952 2951 2947 2942 2935 2930 2925 2921 2915 2911 2907 2903 2900 2896 2893 2889 2885 2881 2879 2876 2873 2870 2867 2865 2862 2860 2857 2854 2852 2849 2846 2844 2842 2840 2839 2838 2839 2840 2840 2842 2843 2843 2848 2853 2857 2861 2866 2871 2876 2882 2887 2891 2895 2898
3054 3051 3052 3050 3046 3045 3044 3041 3041 3040 3035 3033 3034 3031 3027 3025 3023 3021 3018 3013 3010 3006 2996 2991 2989 2978 2968 2968 2964 2957 2955 2951 2947 2947 2944 2937 2931 2925 2919 2912 2906 2901 2897 2894 2891 2888 2884 2880 2877 2873 2870 2868 2865 2863 2860 2858 2855 2854 2851 2848 2846 2844 2842 2840 2837 2835 2834 2833 2833 2834 2834 2836 2837 2837 2839 2845 2851 2854 2859 2864 2870 2876 2881 2885 2888 2892
3050 3046 3046 3045 3042 3040 3040 3038 3037 3036 3033 3032 3031 3027 3023 3021 3019 3017 3014 3009 3008 3005 2992 2983 2984 2977 2968 2965 2961 2955 2951 2946 2943 2943 2939 2933 2926 2919 2911 2903 2896 2891 2886 2883 2880 2877 2875 2871 2868 2865 2862 2859 2857 2854 2852 2850 2848 2846 2845 2842 2841 2839 2837 2835 2833 2831 2829 2829 2828 2828 2829 2830 2831 2832 2832 2836 2842 2848 2852 2858 2864 2870 2875 2879 2883 2887
3048 3043 3042 3042 3038 3036 3036 3035 3033 3032 3030 3029 3027 3023 3019 3018 3016 3013 3011 3007 3005 3002 2991 2981 2978 2974 2968 2964 2958 2953 2947 2941 2938 2937 2931 2925 2919 2911 2902 2894 2887 2882 2877 2872 2869 2866 2864 2861 2859 2856 2853 2850 2848 2845 2843 2841 2839 2838 2837 2836 2834 2833 2832 2830 2828 2826 2825 2824 2823 2822 2824 2825 2826 2827 2827 2828 2833 2840 2846 2852 2858 2864 2869 2874 2877 2881
3045 3041 3040 3039 3034 3030 3032 3033 3030 3028 3027 3025 3021 3018 3017 3015 3013 3010 3008 3004 3000 2995 2986 2979 2974 2968 2965 2963 2956 2950 2942 2932 2929 2928 2922 2916 2911 2903 2894 2886 2878 2873 2867 2861 2858 2856 2853 2851 2849 2847 2844 2841 2838 2836 2834 2831 2830 2829 2828 2829 2828 2827 2827 2825 2823 2822 2821 2820 2818 2817 2819 2820 2821 2822 2823 2823 2825 2831 2839 2846 2852 2857 2863 2868 2872 2875
3042 3039 3038 3036 3031 3026 3027 3029 3025 3022 3021 3019 3016 3014 3014 3012 3010 3007 3004 3001 2997 2989 2979 2975 2971 2963 2959 2957 2952 2946 2935 2922 2919 2920 2915 2907 2902 2895 2885 2877 2869 2863 2858 2852 2848 2846 2844 2841 2839 2837 2835 2832 2829 2828 2825 2823 2821 2819 2819 2820 2820 2820 2821 2820 2818 2817 2816 2815 2814 2813 2813 2815 2816 2817 2819 2821 2822 2825 2831 2838 2845 2851 2856 2862 2866 2869
3039 3036 3034 3034 3029 3023 3024 3024 3020 3017 3015 3014 3013 3013 3011 3009 3007 3003 2999 2998 2997 2989 2978 2972 2968 2961 2956 2952 2946 2940 2929 2914 2908 2912 2910 2901 2894 2885 2874 2866 2861 2855 2850 2846 2841 2838 2835 2831 2830 2827 2825 2822 2820 2818 2817 2814 2812 2810 2810 2811 2812 2813 2813 2813 2812 2811 2810 2810 2810 2808 2809 2810 2812 2813 2815 2817 2820 2823 2826 2831 2837 2844 2850 2856 2861 2864
3035 3034 3032 3032 3028 3022 3021 3020 3016 3014 3012 3011 3011 3012 3010 3007 3004 3000 2995 2992 2992 2988 2980 2973 2966 2960 2954 2949 2942 2935 2926 2911 2899 2901 2906 2897 2887 2880 2868 2858 2854 2849 2842 2838 2833 2828 2824 2820 2817 2814 2811 2809 2807 2806 2806 2804 2803 2801 2800 2802 2804 2805 2805 2805 2805 2804 2804 2805 2805 2804 2804 2805 2807 2809 2810 2812 2816 2820 2823 2826 2831 2837 2844 2849 2854 2858
3031 3031 3030 3029 3027 3021 3019 3018 3016 3012 3009 3008 3009 3010 3008 3005 3002 2998 2991 2988 2988 2983 2977 2971 2964 2958 2951 2945 2939 2931 2923 2908 2887 2882 2896 2896 2882 2874 2866 2854 2847 2840 2832 2826 2821 2815 2810 2806 2800 2796 2793 2792 2790 2789 2788 2789 2790 2790 2789 2791 2795 2796 2797 2798 2798 2798 2798 2799 2800 2799 2798 2800 2802 2804 2806 2809 2812 2816 2820 2824 2827 2832 2837 2842 2848 2852
3028 3029 3027 3026 3024 3021 3019 3019 3015 3008 3003 3004 3006 3005 3004 3001 2998 2994 2986 2983 2984 2980 2974 2968 2961 2955 2947 2938 2933 2924 2916 2905 2878 2860 2875 2890 2878 2864 2855 2843 2835 2828 2820 2814 2808 2801 2796 2791 2786 2781 2777 2775 2773 2772 2771 2772 2775 2776 2776 2780 2785 2787 2788 2790 2790 2791 2793 2794 2794 2794 2793 2795 2798 2800 2803 2806 2809 2812 2816 2820 2823 2828 2832 2837 2842 2847
3026 3025 3024 3023 3022 3019 3018 3015 3012 3005 3000 3000 3001 3001 3000 2997 2995 2993 2983 2976 2977 2977 2973 2966 2957 2950 2942 2932 2924 2916 2907 2898 2873 2845 2848 2865 2861 2849 2841 2830 2822 2815 2808 2803 2798 2792 2787 2781 2776 2771 2767 2763 2761 2760 2758 2759 2762 2764 2765 2770 2774 2777 2779 2781 2783 2785 2788 2788 2788 2788 2788 2790 2793 2796 2799 2802 2806 2809 2813 2815 2819 2823 2828 2832 2837 2841
3024 3022 3022 3021 3018 3017 3016 3013 3010 3006 2999 2996 2997 2998 2998 2995 2993 2992 2982 2971 2971 2973 2969 2962 2953 2944 2937 2927 2917 2909 2899 2889 2871 2848 2840 2842 2839 2833 2828 2820 2814 2807 2800 2794 2789 2783 2779 2775 2769 2764 2759 2755 2753 2752 2750 2750 2750 2753 2756 2761 2765 2768 2771 2774 2777 2780 2782 2782 2783 2783 2784 2786 2788 2791 2794 2797 2801 2805 2809 2811 2815 2819 2824 2828 2832 2837
3021 3019 3018 3017 3014 3014 3014 3011 3008 3002 2994 2993 2994 2994 2994 2991 2989 2988 2979 2968 2967 2967 2962 2955 2948 2940 2932 2924 2914 2906 2899 2888 2871 2853 2844 2837 2828 2823 2819 2811 2807 2803 2797 2792 2785 2777 2771 2767 2762 2757 2752 2748 2746 2745 2743 2741 2741 2743 2747 2752 2756 2759 2763 2767 2771 2774 2775 2776 2777 2778 2780 2782 2784 2787 2790 2792 2796 2800 2804 2807 2811 2815 2819 2823 2828 2833
3017 3016 3015 3013 3011 3010 3010 3008 3003 2995 2989 2991 2992 2989 2988 2988 2985 2982 2974 2964 2963 2963 2957 2950 2944 2937 2929 2922 2913 2905 2898 2889 2872 2854 2843 2834 2824 2819 2815 2807 2801 2796 2790 2785 2780 2772 2765 2759 2754 2749 2745 2742 2740 2739 2736 2734 2733 2735 2738 2742 2746 2750 2756 2761 2765 2768 2769 2770 2771 2773 2776 2778 2780 2782 2785 2788 2791 2795 2799 2803 2807 2811 2815 2819 2824 2828
3014 3013 3010 3008 3007 3006 3006 3004 2998 2990 2987 2989 2988 2986 2985 2984 2981 2979 2972 2963 2960 2959 2954 2948 2941 2934 2927 2919 2911 2903 2895 2886 2873 2855 2842 2832 2821 2814 2810 2804 2798 2792 2785 2779 2773 2766 2758 2751 2746 2742 2738 2736 2735 2733 2730 2729 2728 2728 2730 2734 2738 2743 2749 2754 2758 2762 2764 2765 2766 2769 2771 2774 2775 2777 2780 2783 2787 2790 2794 2798 2802 2806 2811 2815 2819 2823
3011 3009 3006 3005 3004 3002 3001 3000 2995 2988 2986 2986 2985 2984 2983 2980 2977 2975 2969 2964 2960 2955 2950 2944 2937 2931 2925 2916 2908 2900 2889 2878 2867 2852 2838 2828 2818 2810 2804 2799 2793 2787 2781 2775 2770 2763 2754 2746 2740 2736 2732 2731 2730 2728 2726 2724 2723 2722 2724 2728 2731 2737 2743 2748 2752 2756 2759 2760 2762 2764 2767 2769 2771 2773 2775 2778 2782 2786 2789 2793 2797 2801 2805 2810 2814 2819
3008 3006 3002 3001 3001 2998 2997 2997 2993 2987 2984 2984 2982 2979 2978 2977 2975 2971 2965 2961 2959 2953 2946 2939 2933 2927 2921 2912 2903 2895 2883 2870 2857 2843 2831 2822 2814 2807 2800 2794 2788 2781 2775 2771 2765 2759 2751 2743 2737 2732 2729 2727 2726 2724 2723 2720 2718 2718 2719 2721 2726 2732 2738 2743 2747 2751 2754 2755 2757 2760 2763 2765 2767 2768 2771 2773 2777 2781 2784 2788 2791 2795 2800 2805 2809 2814
3003 3001 2999 2997 2998 2996 2993 2991 2988 2983 2981 2982 2979 2976 2974 2974 2972 2968 2962 2957 2954 2950 2943 2935 2928 2923 2917 2908 2898 2888 2877 2863 2850 2837 2825 2816 2808 2801 2795 2790 2784 2778 2773 2769 2762 2756 2750 2743 2737 2732 2728 2726 2724 2721 2719 2716 2714 2713 2714 2717 2723 2729 2735 2740 2744 2747 2749 2750 2752 2755 2757 2760 2762 2764 2766 2769 2772 2775 2779 2782 2785 2789 2794 2799 2804 2808
2998 2997 2995 2994 2993 2991 2987 2982 2981 2980 2978 2978 2977 2974 2972 2970 2968 2965 2961 2954 2949 2945 2939 2931 2924 2918 2913 2904 2894 2884 2872 2858 2847 2837 2825 2812 2803 2797 2791 2786 2781 2775 2770 2766 2760 2755 2750 2744 2739 2734 2730 2727 2724 2721 2718 2715 2712 2711 2712 2715 2721 2727 2732 2737 2740 2742 2744 2746 2748 2750 2752 2755 2757 2758 2760 2763 2767 2770 2773 2777 2780 2784 2788 2793 2798 2803
2994 2993 2992 2990 2987 2985 2981 2978 2977 2976 2975 2975 2974 2972 2969 2966 2963 2961 2958 2952 2945 2940 2935 2929 2921 2913 2908 2900 2890 2879 2868 2856 2846 2837 2824 2810 2800 2794 2788 2783 2778 2772 2767 2762 2758 2753 2749 2744 2740 2735 2732 2729 2726 2723 2720 2717 2714 2712 2712 2716 2720 2723 2727 2732 2735 2737 2739 2741 2743 2746 2747 2749 2751 2753 2755 2758 2762 2765 2768 2771 2774 2778 2782 2787 2792 2797
2990 2990 2988 2985 2983 2980 2976 2975 2976 2974 2971 2970 2970 2968 2966 2962 2959 2956 2953 2948 2942 2935 2930 2926 2919 2910 2903 2896 2885 2874 2864 2855 2844 2834 2821 2807 2797 2791 2785 2779 2773 2768 2764 2759 2754 2750 2746 2742 2738 2735 2731 2729 2727 2724 2721 2719 2716 2714 2714 2716 2718 2720 2723 2726 2729 2732 2734 2736 2739 2741 2743 2744 2746 2748 2750 2754 2757 2761 2764 2767 2769 2772 2777 2781 2785 2790
2986 2985 2982 2981 2980 2976 2971 2971 2973 2970 2967 2967 2966 2962 2961 2958 2954 2952 2948 2944 2939 2933 2925 2921 2916 2907 2897 2889 2881 2872 2863 2852 2841 2830 2818 2807 2797 2789 2783 2777 2770 2765 2761 2757 2753 2748 2744 2741 2737 2734 2731 2728 2726 2724 2721 2719 2717 2716 2715 2715 2716 2717 2719 2722 2725 2727 2729 2732 2735 2737 2739 2740 2742 2744 2746 2749 2753 2756 2760 2763 2765 2768 2772 2776 2781 2786
2982 2980 2978 2977 2975 2971 2969 2969 2969 2966 2963 2964 2963 2958 2954 2952 2949 2946 2944 2940 2936 2931 2923 2916 2910 2903 2894 2885 2878 2872 2863 2850 2839 2830 2821 2810 2798 2789 2782 2775 2768 2763 2757 2753 2750 2747 2742 2739 2736 2733 2730 2727 2725 2723 2721 2719 2718 2716 2715 2714 2715 2715 2717 2719 2721 2723 2725 2728 2731 2734 2736 2737 2739 2741 2743 2745 2748 2752 2756 2759 2762 2766 2770 2775 2779 2785
2977 2974 2974 2974 2970 2967 2966 2966 2966 2962 2959 2959 2958 2954 2950 2948 2944 2941 2939 2936 2932 2927 2920 2912 2905 2899 2892 2884 2877 2870 2862 2850 2839 2830 2823 2813 2801 2790 2781 2774 2767 2762 2757 2752 2748 2745 2741 2738 2735 2732 2729 2727 2724 2721 2719 2717 2716 2715 2714 2713 2713 2713 2715 2717 2718 2720 2722 2726 2729 2731 2733 2734 2735 2737 2739 2741 2744 2748 2752 2756 2759 2763 2768 2773 2778 2782
2971 2969 2969 2969 2965 2963 2963 2963 2962 2959 2956 2955 2954 2951 2947 2945 2942 2938 2935 2932 2927 2922 2916 2910 2902 2895 2889 2884 2877 2868 2859 2851 2842 2833 2824 2817 2806 2795 2784 2775 2768 2761 2756 2751 2747 2743 2740 2737 2734 2731 2728 2726 2723 2721 2718 2716 2714 2713 2713 2712 2712 2713 2714 2715 2716 2718 2721 2724 2726 2728 2729 2730 2732 2733 2735 2737 2741 2744 2748 2752 2755 2759 2764 2770 2774 2779